[Date Prev][Date Next][Thread Prev][Thread Next][Date Index][Thread Index]

[jamsat-news:1547] jas2info #235



========================   最新情報   ==============================

        Last updated :Sat.21JUL2001  11:00(JST)   #235
        
====================================================================
   
  1)アマチュア通信衛星情報、FOシリーズの軌道要素、テレメトリ、QSOの
   状況等をまとめてみました.
   
   FO−29の2001年7月21日(土)の9:02(JST)のパスでは
  JARLのホームページのとうりアナログ運用でした。 今週の観測した
  テレメトリーと最終の分析結果を掲載しておきます.

AS24323C1   21JUL2001
9:02-9:18(JST)
FREQ.435.803-.788MHz

HI HI AE C7 88 55 00 D4 34 8C 09 7B 88 51 77 63 9B 98 B0 82 9E A3 A7 A0 9F 
HI HI AE C7 88 55 00 D4 34 8C 09 7B 88 53 78 63 9B 98 B0 7E 9E A3 A7 A0 9F 
HI HI AE C7 88 55 00 D4 34 8C 09 7B 81 58 77 63 9B 98 B0 63 9E A3 A7 A0 9F 
HI HI AE C7 88 55 00 D4 34 8C 09 7B 7A 5F 75 63 9B 98 B0 5C 9E A3 A7 A0 9F 
HI HI AE C7 88 55 00 D4 34 8C 09 7B 73 68 74 63 9B 98 B0 88 9E A3 A7 A0 9F 
HI HI AE C7 88 55 00 D4 34 8C 09 7B 6D 73 71 63 9B 98 B0 68 9E A3 A7 A0 9F 
HI HI AE C7 88 55 00 D4 34 8C 09 7B 67 7E 6D 63 9B 98 B0 7C 9E A3 A7 A0 9F 
HI HI AE C7 88 55 00 D4 34 8C 09 7B 63 89 6B 63 9B 98 B0 9D 9D A3 A7 A0 9F 
HI HI AE C7 88 55 00 D4 34 8C 09 7B 5F 94 6B 63 9B 98 B0 74 9D A3 A7 A0 9F 
HI HI AE C7 88 55 00 D4 34 8C 09 7B 5D 9D 6C 63 9B 98 B0 85 9D A3 A7 A0 9F 
HI HI AE C7 88 55 00 D4 34 8C 09 7B 5C A5 6E 63 9B 98 B0 7A 9D A3 A7 A0 9F 
HI HI AE C7 88 55 00 D4 34 8C 09 7B 5C AA 6F 63 9A 98 B0 7B 9D A3 A7 9F 9F 
HI HI AE C7 88 55 00 D4 34 8C 09 7B 5E AD 71 63 9B 98 B0 6F 9D A2 A7 A0 9F 
HI HI AE C7 88 55 00 D4 34 8C 09 7B 61 AE 72 63 9A 98 B0 59 9D A2 A7 A0 9F 
HI HI AE C7 88 55 00 D4 34 8C 09 7B 64 AC 74 63 9B 98 B0 71 9D A2 A7 A0 9F 
HI HI AE C7 88 55 00 D4 34 8C 09 7B 68 A9 74 63 9B 99 B0 D9 9D A2 A7 A0 9F 
HI HI AE C7 88 55 00 D4 34 8C 09 7B 6D A3 73 63 9B 98 B0 9C 9D A2 A7 A0 9F 
HI HI AE C7 88 55 00 D4 34 8C 09 7B 72 9C 73 63 9A 98 B0 71 9D A2 A7 A0 9F 
HI HI AE C7 88 55 00 D4 34 8C 09 7B 77 92 71 63 9B 98 B0 5B 9D A2 A7 A0 9F 
HI HI AE C7 88 55 00 D4 34 8C 09 7B 7C 88 73 63 9A 98 B0 78 9D A2 A7 A0 9F 
HI HI AE C7 88 55 00 D4 34 8C 09 7B 80 7D 74 63 9A 98 B0 65 9D A2 A7 A0 9F 
HI HI AE C7 88 55 00 D4 34 8C 09 7B 83 71 73 63 9B 86 B0 70 9D A2 A7 9F 9F 
HI HI AE C7 88 55 00 D4 34 8C 09 7B 86 65 74 63 9A 98 B0 75 9D A2 A7 A0 A0 
HI HI AE C7 88 55 00 D4 34 8C 09 7B 88 59 7D 63 9A 98 B0 78 9D A2 A7 A0 A0 

AS24302C1  19JUL2001
20:20-20:38(JST)
FREQ.435.803-.786MHz

HI HI AE C7 88 55 00 D4 B9 A4 09 3E 65       64 9B 99 B0 95 9F 9D A8 A7 A4 
HI HI AE C7 88 55 00 D4 B9 A4 09 3E 49 A4 6E 64 9B 99 B0 71 9F 9D A8 A7 A4 
HI HI AE C7 88 55 00 D4 B9 A4 09 3E 49 9E 6D 65 9B 99 B0 B5 9F 9D A8 A7 A4 
HI HI AE C7 88 55 00 D4 B9 A4 08 3E 4A 97 6B 64 9B 99 B0 6F 9F 9D A7 A7 A4 
HI HI AE C7 88 55 00 D4 B9 A4 09 3E 4D 90 68 64 9B 99 B0 60 9F 9D A7 A7 A4 
HI HI AE C7 88 55 00 D4 B9 A4 09 3E 4F 7A 66 64 9B 99 B0 63 9F 9D A7 A7 A4 
HI HI AE C7 88 55 00 D4 B9 A4 09 3E 55 84 63 64 9B 99 B0 82 9F 9D A7 A7 A4 
HI HI AE C7 88 55 00 D4 B9 A4 09 3E 5B 80 62 64 9B 99 B0    9E 9D A7 A7 A4 
HI HI AE C7 88 55 00 D4 B9 A4 09 3E 61 7C 61 64 9B 99 B0 59 9E 9D A7 A6 A4 
HI HI AE C7 88 55 00 D4 B9 A4 09 3E 67 79 63 64 9B 99 B0 62 9E 9D A7 A6 A4
HI HI AE C7 88 55 00 D4 B9 A4 09 3E 5C 79 65 63 9B 99 B0 B7 9E 9C A7 A6 A3 
HI HI AE C7 88 55 00 D4 B9 A4 09 3E 62 79 67 64 9B 99 B2 56 9E 9C A7 A6 A3 
HI HI AE C7 88 55 00 D4 B9 A4 09 3E 64 7A 6A 64 9B 99 B0 87 9E 9C A7 A6 A3 
HI HI AE C7 88 55 00 D4 B9 A4 09 3E 79 7D 6B 64 9B 99 B0 8E 9E 9C A7 A6 A3 
HI HI AE C7 88 55 00 D4 B9 A4 09 3E 7B 80 6C 64 9B 99 B0 5E 9E 9C A7 A6 A3 
HI HI AE C7 88 55 00 D4 B9 A4 09 3E 7D 85 6C 63 9B 99 B0 84 9E 9C A7 A6 A3 
HI HI AE C7 88 55 00 D4 B9 A4 09 3E 7C 8A 6C 63 9B 99 B0 92 9E 9C A6 A6 A3 
HI HI AE C7 88 55 00 D4 B9 A4 09 3E 7A 8E 6D 63 9B 99 B0 81 9E 9C A6 A6 A3 
HI HI AE C7 88 55 00 D4 B9 A4 09 3E 77 93 6C 63 9B 99 B0 8A 9E 9C A6 A6 A3 
HI HI AE C7 88 55 00 D4 B9 A4 09 3E 72 97 6A 63 9B 99 B1 55 9F 9C A6 A6 A3 
HI HI AE C7 88 55 00 D4 B9 A4 09 3E 6C 99 6A 64 9B 99 B0 79 9F 9C A6 A6 A3 
HI HI AE C7 88 55 00 D4 B9 A4 09 3E 65 9B 67 64 9B 99 B0 7F 9F 9C A6 A6 A3 
HI HI AE C7 88 55 00 D4 B9 A4 09 3E 5D 9A 63 64 9B 99 B0 99 9F 9C A6 A6 A3 
HI HI AE C7 88 55 00 D4 B9 A4 09 3E 55 98 60 64 9B 99 B0 7C 9F 9B A5 A6 A3 
HI HI AE C7 88 55 00 D4 B9 A4 09 3E 4C 84 59 64 9B 99 B0 6D 9F 9B A5 A6 A3 
 
AS24288C1  18JUL2001
19:30-19:45(JST)
FREQ435.802-.788MHz

HI HI AE C7 88 55 00 D4 6F 13 09 05 48 47 55 63 9A 98 B0 68 A1 9B A3 A6 A2 
HI HI AE C7 88 55 00 D4 6F 13 09 05 46 4A 57 63 9B 98 B0 7B A1 9B A3 A6 A2 
HI HI AE C7 88 55 00 D4 6F 13 09 05 45 4E 5F 64 9B 98 B0 7D A1 9B A3 A6 A2 
HI HI AE C7 88 55 00 D4 6F 13 09 05 43 51 62 64 9B 98 B0 85 A1 9B A3 A6 A2 
HI HI AE C7 88 55 00 D4 6F 13 09 05 42 55 65 64 9B 99 B0 81 A1 9B A3 A6 A2 
HI HI AE C7 88 55 00 D4 6F 13 09 05 41 59 66 63 9B 99 B0 A2 A2 9B A3 A6 A2 
HI HI AE C7 88 55 00 D4 6F 13 09 05 40 5D 69 63 9B 99 B0 8E A1 9B A3 A6 A2 
HI HI AE C7 88 55 00 D4 6F 13 09 05 40 63 6B 64 9B 99 B0 7A A2 9C A2 A6 A2 
HI HI AE C7 88 55 00 D4 6F 13 09 05 40 68 6A 64 9B 99 B0 63 A2 9C A2 A6 A2 
HI HI AE C7 88 55 00 D4 6F 13 09 05 40 6E 69 63 9B 99 B0 89 A2 9B A2 A6 A2 
HI HI AE C7 88 55 00 D4 6F 13 09 05 40 73 6B 64 9B 99 B0 D2 A2 9B A2 A6 A2 
HI HI AE C7 88 55 00 D4 6F 13 09 05 42 79 6A 64 9B 98 B0 A1 A2 9F A2 A6 U2 
HI HI AE C7 88 55 00 D4 6F 13 09 05 44 7F 66 64 9B 99 B0 77 A2 9C A2 A6 I2 
HI HI AE C7 88 55 00 D4 6F 13 09 05 47 84 62 64 9B 99 B0 81 A2 9C A1 A6 A2
HI HI AE C7 88 55 00 D4 6F 13 09 05 4A 89 5C 64 9B 99 B0 85 A2 9C A1 A6 A2 
HI HI AE C7 88 55 00 D4 6F 13 09 05 4D 90 62 64 9B 99 B0 66 A2 9C A1 A5 A2 
HI HI AE C7 88 55 00 D4 6F 13 09 05 51 92 65 64 9B 99 B0 81 A2 9C A1 A5 A2
HI HI AE C7 88 55 00 D4 6F 13 96 65 55 95 6B 64 9B 99 B0 8E A2 9C A1 A5 A2
HI HI AE C7 88 55 00 D4 6F 13 09 05 5D 9B 6B 64 9B 99 B0

AS24238C1   18JUL2001
10:11-10:15(JST)
FREQ.435.793-.790MHz

HI HI AE C7 88 55 00 D4 39 65 09 04 76 B1 76 63 9B 98 B0 8B A5 A2 A6 A7 A3 
HI HI AE C7 88 55 00 D4 39 65 09 04 7A B1 7B 63 9B 98 B0 5A A5 A2 A6 A7 A4 
HI HI AE C7 88 55 00 D4 39 65 09 04 7D AF 7C 64 9B 98 B0 6D A5 A2 A6 A7 A4 
HI HI AE C7 88 55 00 D4 39 65 09 04 80 AC 7F 63 9B 98 B0 6D A5 A1 A5 A7 A4 
HI HI AE C7 88 55 00 D4 39 65 09 04 83 A8 7E 63 9B 99 B0 72 A5 A1 A5 A7 A4 
HI HI AE C7 88 55 00 D4 39 65 09 04 86 A2 7F 63 9B 99 B0 95 A5 A1 A5 A7 A4 

AS24261C1    16JUL2001
19:35-19:51(JST)
FREQ.435.802-.788MHz

HI HI AE C7 88 55 00 D4 4A DC 09 1D 33 73 67 63 9A 98 B0 95 A2 9D A0 A1 A0 
HI HI AE C7 88 55 00 D4 4A DC 09 1D 33 71 6B 63 9A 98 B0 74 A2 9D 9F A1 A0  
HI HI AE C7 88 55 00 D4 4A DC 09 1D 33 6F 6E 63 9A 98 B0 73 A2 9D 9F A1 A0 
HI HI AE C7 88 55 00 D4 4A DC 09 1D 34 6F 71 63 9A 98 B0 6E A2 9D 9F A1 A0
HI HI AE C7 88 55 00 D4 4A DC 09 1D 35 70 72 63 9A 98 B0 7F A2 9D 9F A1 A0 
HI HI AE C7 88 55 00 D4 4A DC 09 1D 35 71 72 63 9A 98 B0 7D A2 9D 9F A1 A0 
HI HI AE C7 88 55 00 D4 4A DC 09 1D 37 73 72 63 9A 98 B0 7D A2 9D 9F A1 A0 
HI HI AE C7 88 55 00 D4 4A DC 09 1D 38 75 71 63 9A 98 B0 74 A2 9D 9F A1 A0
HI HI AE C7 88 55 00 D4 4A DC 09 1D 3B 7D 6C 63 9A 98 B0 6B A2 9D 9U A1 A0 
HI HI AE C7 88 55 00 D4 4A DC 09 1D 3D 77 69 64 9A 98 B0 80 A2 9D 9F A1 A0 
HI HI AE C7 88 55 O0 D4 4A DC 09 1D 4F 77 61 63 9A 98 B0 5B A2 9D 9E A1 A0
HI HI AE C7 88 55 00 D4 4A DC 09 1D 55 76 5C 63 8A 98 B0 5E A2 9D 9E A0 A0 
HI HI AE C7 88 55 00 D4 4A DC 09 1D 45 73 5D 63 9A 98 B9 73 A2 9D 9E A0 A0  
HI HI AE C7 88 55 00 D4 4A NC 09 1D 49 71 52 63 9A 98 B0 79 A2 9D 9E A0 A0
HI HI AE C7 88 55 00 D4 4A DC 09 1D 50 69 4B 63 9A 98 AF 82 A2 9D 9E A0 A0
HI HI AE C7 88 55 00 D4 4A DC 09 1D 52 67 46 66 99 95 AA 81 A2 9D 9E A0 A0 
HI HI AE C7 88 55 00 D4 4A DC 09 1D 57 61 43 67 97 95 A4 7F A2 9D 9E A0 A0 
HI HI AE C7 88 55 00 D4 4A DC 09 1D 65 58 43 68 95 95 A1 7C A2 9D 8E A0 9F 
HI HI AE C7 88 55 00 D4 4A DC 09 1D 63 55 43 67 94 92 A1 75 A2 9D 9E 9F 9F 
HI HI AE C7 88 55 00 D4 4A DC 09 1D 6A 50 45 65 93 91 8F 8E A2 9D 9E A0 9F
HI HI AE C7 88 55 00 D4 4A DC 09 1D 70 4B 48 64 92 91 A9 95 A2 9D 9E A0 9F
	
 ------------------------ FO-29の軌道要素 ------------------------------        
 
  ■ 軌道要素1:「jamsat−keps:1020」より         
          SB KEPS @ AMSAT  $ORB01200.N
          2Line Orbital Elements 01200.AMSAT

HR AMSAT ORBITAL ELEMENTS FOR AMATEUR SATELLITES IN NASA FORMAT
FROM WA5QGD FORT WORTH,TX July 19, 2001
SEND SUBSCRIBE/UNSUBSCRIBE TO majordomo@amsat.org ONLY
BID: ORB01200.N

 DECODE 2-LINE ELSETS WITH THE FOLLOWING KEY:
 1 AAAAAU 00  0  0 BBBBB.BBBBBBBB  .CCCCCCCC  00000-0  00000-0 0  DDDZ
 2 AAAAA EEE.EEEE FFF.FFFF GGGGGGG HHH.HHHH III.IIII JJ.JJJJJJJJKKKKKZ
 KEY: A-CATALOGNUM B-EPOCHTIME C-DECAY D-ELSETNUM E-INCLINATION F-RAAN
 G-ECCENTRICITY H-ARGPERIGEE I-MNANOM J-MNMOTION K-ORBITNUM Z-CHECKSUM

FO-29
1 24278U 96046B   01200.66804011  .00000002  00000-0  41134-4 0  4294
2 24278  98.5383  61.4700 0350342 277.7762  78.3740 13.52777004243031

 ■ 軌道要素2:「jamsat−keps:1021」より
        SB KEPS @ AMSAT  $ORB01200.O
        Orbital Elements  01200.OSCAR

HR AMSAT ORBITAL ELEMENTS FOR OSCAR SATELLITES
FROM WA5QGD FORT WORTH,TX July 19, 2001
SEND SUBSCRIBE/UNSUBSCRIBE TO majordomo@amsat.org ONLY
BID: ORB01200.O
TO ALL RADIO AMATEURS BT
 
Satellite: FO-29
Catalog number: 24278
Epoch time:      01200.66804011
Element set:     429
Inclination:       98.5383 deg
RA of node:        61.4700 deg
Eccentricity:    0.0350342
Arg of perigee:   277.7762 deg
Mean anomaly:      78.3740 deg
Mean motion:   13.52777004 rev/day
Decay rate:        2.0e-08 rev/day^2
Epoch rev:           24303
Checksum:              278

-------------------  FO-29(JAS-2)のテレメトリに関する情報  ---------------------- 
 
2)上記7月21日(土)のテレメトリの最終行を分析しておきます.

AS24323C1   21JUL2001
9:02-9:18(JST)
FREQ.435.803-.788MHz
 
HI HI AE C7 88 55 00 D4 34 8C 09 7B 88 59 7D 63 9A 98 B0 78 9D A2 A7 A0 A0 

